MSG 4 DEB (COOLER COVER), 40989

Orbit data source: Space-Track

MSG 4 DEB (COOLER COVER), 40989 is space debris in GEO originally from a launch on Wed, 15 Jul 2015 UTC launched from the French Guiana (FRGUI). Debris objects in space refer to the collection of defunct objects orbiting the Earth. Examples of debris include non-operational satellites, rocket bodies, and fragments generated from explosions, collisions, or faulty payload assembly.

Not visible in the next 10 days
Identifier
40989, 2015-034E
Orbit
GEO
Country
Flag of DEDE / EUME
Related business
Manufacturer
SENER
Mission
Spacecraft
Bus & Motor
MSG COVER, Unknown motor
Mass
~0 kg wet, ~4 kg dry
Launch date (UTC)
2015-07-15 (11 years ago)
Launch vehicle
Unknown
Launch site
French Guiana (FRGUI)
Object type
Payload
Rocket body
Debris
Shape & HBR
Box, 0.6 m
Radar Cross Section
0.435 m²

Expand to show TLE details & history
Last TLE update: 1 day ago

TLE from 1 day ago
0 MSG 4 DEB (COOLER COVER)
1 40989U 15034E   26105.49434109 -.00000099  00000-0  00000-0 0  9990
2 40989   6.9549  79.8948 0037241 301.2339 132.8755  1.01537740 39706
Epoch: 2026-04-15T11:51Z
TLE epoch observation values (Epoch: 2026-04-15T11:51:51.070Z)
Latitude
6.6808°
Longitude
132.58056°
Altitude
35,541.059 km
Speed
3.08 km/s
True Right ascension
10h 16m 47s
True Declination
6° 40' 27"
Sunlit
Object was in daylight at epoch
Visualization orbit readout
Latitude
Unknown
Longitude
Unknown
Altitude
Unknown
Speed
Unknown
Apparent Right ascension
Unknown
Apparent Declination
Unknown
Sunlit
N/A
Visualization observer readout
Local Sidereal Time
06:12:05
Azimuth
Unknown
Elevation
Unknown
Doppler factor
Unknown
Orbital elements
Apogee altitude
35,592.172 km
Perigee altitude
35,280.728 km
Semi-major axis
41,814.587 km
Eccentricity
0.00372
Inclination
6.9549°
RAAN
79.8948°
Arg. of periapsis
301.2339°
True anomaly
133.18725°
Mean anomaly
132.8755°
Eccentric anomaly
133.03147°
Mean motion
0.25383 °/min
Orbital period
1,418.24 mins
BSTAR
0
Loading maneuver chart data...
Computing Atmospheric mass density...
Loading historical data...
Loading historical data...
Loading historical data...
Loading historical data...
Loading historical data...
Loading historical data...
Loading historical data...

Documentation

Showing up to 5 results
|